Date String (YYYY-MM-DD hh:mm:ss) UTC,Instrument flags,absolute air pressure of the measurement (hPa),sample flow rate (lpm),inlet stack bypass flow (lpm),air temperature of the measurement (°C),ambient temperature measured by the external sensor (°C),aerosol sample conditioner tube jacket temperature (°C),OPC LED temperature (°C),internal box temperature (°C),relative humidity of the measurement (%),span deviation,mass concentration of particles derived from Lorenz-Mie calculation of OPC scattering (μg/m³),mass concentration of particles derived from Lorenz-Mie calculation of OPC scattering (μg/m³),mass concentration of particles derived from Lorenz-Mie calculation of OPC scattering (μg/m³)
DateTimeUTC,F1_M11,P_M11,Q1_M11,Q2_M11,T1_M11,T2_M11,T3_M11,T4_M11,T5_M11,U1_M11,ZSPAN_M11,X0_M11,X2_M11,X1_M11
2023-09-13 18:00:00,SystemResetWarning,0830.6,4.99,000.00,027.9,026.7,000.0,036.2,029.5,26.4,0000.0,0009.66,0005.47,0004.89
2023-09-13 18:01:00,SystemResetWarning,0830.6,5.00,000.00,027.9,026.9,000.0,036.2,029.6,26.7,0000.0,0009.66,0005.46,0004.87
2023-09-13 18:02:00,SystemResetWarning,0830.6,5.01,000.00,028.0,027.0,000.0,036.2,029.7,26.2,0000.0,0009.68,0005.44,0004.85
2023-09-13 18:03:00,SystemResetWarning,0830.6,5.01,000.00,028.0,026.9,000.0,036.2,029.7,26.7,0000.0,0009.69,0005.43,0004.84
2023-09-13 18:04:00,SystemResetWarning,0830.7,4.98,000.00,028.0,025.8,000.0,036.2,029.4,27.3,0000.0,0009.90,0005.45,0004.84
2023-09-13 18:05:00,SystemResetWarning,0830.6,5.00,000.00,027.9,025.1,000.0,036.2,029.3,27.4,0000.0,0009.87,0005.43,0004.81
2023-09-13 18:06:00,SystemResetWarning,0830.6,5.01,000.00,027.9,025.1,000.0,036.2,029.2,27.8,0000.0,0010.47,0005.42,0004.80
2023-09-13 18:07:00,SystemResetWarning,0830.4,5.01,000.00,027.8,025.4,000.0,036.2,029.2,27.8,0000.0,0010.63,0005.39,0004.79
2023-09-13 18:08:00,SystemResetWarning,0830.6,4.99,000.00,027.8,025.6,000.0,036.2,029.3,27.8,0000.0,0010.62,0005.40,0004.78
2023-09-13 18:09:00,SystemResetWarning,0830.5,5.00,000.00,027.9,025.9,000.0,036.2,029.3,27.1,0000.0,0010.10,0005.39,0004.78
2023-09-13 18:10:00,SystemResetWarning,0830.5,5.01,000.00,027.9,026.2,000.0,036.2,029.4,27.9,0000.0,0009.72,0005.40,0004.78
2023-09-13 18:11:00,SystemResetWarning,0830.5,5.00,000.00,027.9,026.4,000.0,036.2,029.5,27.7,0000.2,0010.14,0005.38,0004.79
2023-09-13 18:12:00,SystemResetWarning,0830.4,4.99,000.00,027.9,026.6,000.0,036.2,029.5,27.1,0000.6,0010.36,0005.41,0004.82
2023-09-13 18:13:00,SystemResetWarning,0830.5,5.00,000.00,028.0,026.7,000.0,036.3,029.6,26.7,0000.6,0010.60,0005.43,0004.85
2023-09-13 18:14:00,SystemResetWarning,0830.7,4.99,000.00,028.0,026.9,000.0,036.3,029.6,26.5,0001.1,0010.76,0005.44,0004.85
2023-09-13 18:15:00,SystemResetWarning,0830.5,4.99,000.00,028.1,026.7,000.0,036.3,029.6,26.3,0001.1,0010.55,0005.41,0004.86
2023-09-13 18:16:00,SystemResetWarning,0830.6,5.00,000.00,028.0,025.2,000.0,036.2,029.2,26.6,0001.2,0010.75,0005.42,0004.88
2023-09-13 18:17:00,SystemResetWarning,0830.4,5.00,000.00,027.8,024.1,000.0,036.2,029.0,27.2,0001.2,0010.65,0005.42,0004.89
2023-09-13 18:18:00,SystemResetWarning,0830.4,5.01,000.00,027.8,024.1,000.0,036.1,029.0,27.6,0001.4,0010.29,0005.41,0004.90
2023-09-13 18:19:00,SystemResetWarning,0830.4,5.01,000.00,027.7,024.4,000.0,036.1,028.9,28.1,0001.0,0010.43,0005.43,0004.91
2023-09-13 18:20:00,SystemResetWarning,0830.4,5.00,000.00,027.7,024.8,000.0,036.1,029.0,27.6,0001.0,0010.73,0005.44,0004.93
2023-09-13 18:21:00,SystemResetWarning,0830.4,5.00,000.00,027.7,025.2,000.0,036.1,029.0,28.4,0000.9,0010.77,0005.46,0004.94
2023-09-13 18:22:00,SystemResetWarning,0830.4,5.00,000.00,027.7,025.5,000.0,036.1,029.1,29.0,0001.1,0010.36,0005.45,0004.94
2023-09-13 18:23:00,SystemResetWarning,0830.4,5.00,000.00,027.7,025.8,000.0,036.1,029.2,28.4,0000.9,0010.09,0005.45,0004.95
2023-09-13 18:24:00,SystemResetWarning,0830.4,5.00,000.00,027.7,026.1,000.0,036.1,029.3,28.4,0000.2,0010.14,0005.45,0004.93
2023-09-13 18:25:00,SystemResetWarning,0830.4,5.00,000.00,027.8,026.3,000.0,036.1,029.3,28.5,0000.2,0010.03,0005.45,0004.93
2023-09-13 18:26:00,SystemResetWarning,0830.3,5.00,000.00,027.8,026.5,000.0,036.1,029.4,28.2,0000.0,0010.25,0005.48,0004.92
2023-09-13 18:27:00,SystemResetWarning,0830.3,4.99,000.00,027.8,026.7,000.0,036.1,029.5,28.9,-000.3,0010.79,0005.47,0004.91
2023-09-13 18:28:00,SystemResetWarning,0830.3,4.99,000.00,027.9,026.8,000.0,036.2,029.5,28.6,0000.3,0011.03,0005.47,0004.92
2023-09-13 18:29:00,SystemResetWarning,0830.3,5.01,000.00,027.9,026.9,000.0,036.2,029.6,28.6,0000.6,0011.02,0005.48,0004.92
2023-09-13 18:30:00,SystemResetWarning,0830.3,5.00,000.00,028.0,027.0,000.0,036.2,029.6,28.7,0000.7,0010.97,0005.43,0004.91
2023-09-13 18:31:00,SystemResetWarning,0830.3,4.98,000.00,028.0,026.0,000.0,036.2,029.4,28.3,0000.5,0010.64,0005.40,0004.90
2023-09-13 18:32:00,SystemResetWarning,0830.3,5.00,000.00,027.8,024.5,000.0,036.1,028.9,28.9,0000.6,0010.53,0005.35,0004.88
2023-09-13 18:33:00,SystemResetWarning,0830.3,5.00,000.00,027.7,024.0,000.0,036.1,028.9,29.2,0000.7,0010.51,0005.33,0004.87
2023-09-13 18:34:00,SystemResetWarning,0830.2,5.01,000.00,027.7,024.3,000.0,036.1,028.9,29.5,0000.0,0010.52,0005.30,0004.87
2023-09-13 18:35:00,SystemResetWarning,0830.3,5.01,000.00,027.6,024.7,000.0,036.1,028.9,29.0,0000.4,0010.49,0005.26,0004.86
2023-09-13 18:36:00,SystemResetWarning,0830.3,5.01,000.00,027.6,025.0,000.0,036.0,029.0,27.6,0001.2,0010.78,0005.26,0004.86
2023-09-13 18:37:00,SystemResetWarning,0830.2,4.99,000.00,027.6,025.4,000.0,036.0,029.1,27.8,0000.6,0010.53,0005.22,0004.84
2023-09-13 18:38:00,SystemResetWarning,0830.3,4.99,000.00,027.6,025.7,000.0,036.0,029.2,27.7,0000.0,0010.05,0005.22,0004.84
2023-09-13 18:39:00,SystemResetWarning,0830.3,4.99,000.00,027.7,026.0,000.0,036.0,029.2,28.3,0000.0,0009.92,0005.21,0004.84
2023-09-13 18:40:00,SystemResetWarning,0830.2,5.01,000.00,027.7,026.2,000.0,036.1,029.3,27.9,0000.0,0009.93,0005.22,0004.85
2023-09-13 18:41:00,SystemResetWarning,0830.3,5.00,000.00,027.8,026.4,000.0,036.1,029.4,27.7,0000.0,0009.87,0005.24,0004.87
2023-09-13 18:42:00,SystemResetWarning,0830.2,5.01,000.00,027.8,026.6,000.0,036.1,029.4,27.6,0000.0,0009.84,0005.25,0004.88
2023-09-13 18:43:00,SystemResetWarning,0830.2,5.00,000.00,027.8,026.8,000.0,036.1,029.5,27.4,0000.0,0010.65,0005.26,0004.89
2023-09-13 18:44:00,SystemResetWarning,0830.2,5.00,000.00,027.9,026.9,000.0,036.1,029.5,26.4,0000.0,0011.10,0005.26,0004.88
2023-09-13 18:45:00,SystemResetWarning,0830.2,4.99,000.00,027.9,026.5,000.0,036.1,029.5,26.6,0000.0,0011.48,0005.26,0004.87
2023-09-13 18:46:00,SystemResetWarning,0830.2,5.00,000.00,027.8,024.9,000.0,036.1,029.0,27.8,0000.0,0011.33,0005.26,0004.86
2023-09-13 18:47:00,SystemResetWarning,0830.3,5.02,000.00,027.7,024.0,000.0,036.0,028.9,28.1,0000.0,0010.76,0005.22,0004.85
2023-09-13 18:48:00,SystemResetWarning,0830.3,5.00,000.00,027.6,024.1,000.0,036.0,028.9,27.6,0000.0,0010.82,0005.20,0004.84
2023-09-13 18:49:00,SystemResetWarning,0830.3,5.00,000.00,027.6,024.4,000.0,036.0,028.8,28.3,0000.0,0010.81,0005.19,0004.83
2023-09-13 18:50:00,SystemResetWarning,0830.3,5.00,000.00,027.5,024.8,000.0,036.0,028.9,28.5,0000.0,0010.64,0005.23,0004.83
2023-09-13 18:51:00,SystemResetWarning,0830.3,5.00,000.00,027.6,025.2,000.0,036.0,029.0,27.6,0000.0,0011.40,0005.23,0004.82
2023-09-13 18:52:00,SystemResetWarning,0830.3,5.00,000.00,027.6,025.5,000.0,036.0,029.1,27.3,0000.0,0011.47,0005.25,0004.81
2023-09-13 18:53:00,SystemResetWarning,0830.3,5.00,000.00,027.6,025.8,000.0,036.0,029.2,27.8,0000.0,0011.69,0005.28,0004.82
2023-09-13 18:54:00,SystemResetWarning,0830.2,4.99,000.00,027.7,026.1,000.0,036.0,029.2,28.6,0000.0,0011.48,0005.29,0004.82
2023-09-13 18:55:00,SystemResetWarning,0830.3,4.99,000.00,027.7,026.3,000.0,036.0,029.3,28.7,0000.0,0011.70,0005.33,0004.85
2023-09-13 18:56:00,SystemResetWarning,0830.1,4.99,000.00,027.7,026.5,000.0,036.0,029.4,28.3,0000.0,0011.34,0005.38,0004.89
2023-09-13 18:57:00,SystemResetWarning,0830.2,5.00,000.00,027.8,026.7,000.0,036.0,029.4,27.3,-000.4,0012.36,0005.44,0004.93
2023-09-13 18:58:00,SystemResetWarning,0830.2,5.00,000.00,027.8,026.8,000.0,036.1,029.5,27.1,-000.2,0012.66,0005.51,0004.96
2023-09-13 18:59:00,SystemResetWarning,0830.2,5.00,000.00,027.9,026.3,000.0,036.0,029.4,28.0,-000.1,0013.17,0005.57,0005.01
